Back to catalog

COSMOS 2316

GLONASS

AliveNavigationMEO
NORAD 23620·PAYLOAD·🇷🇺 Russia

Launched Jul 24, 1995 from Baikonur Cosmodrome

Loading…

Next Passes (next 24 hours)

TLE

FreshSource: Space-Track

Epoch: Sep 14, 2026, 15:07 UTC

1 23620U 95037A   26257.63004338  .00000025  00000-0  00000+0 0  9992
2 23620  65.4709 199.9194 0012425 157.1101  13.2552  2.13101873242347

Track COSMOS 2316 in real time with AllMySat

Download on the App Store